| time (UTC) | temp F | wind direction | speed knots | gust knots | rain 1hr in | rain 24hr in | rain mn in | humidity % | barometer mb |
| 20260506185028 | 53 | 184 | 2.6 | 4.3 | 0.13 | 0.49 | 0.49 | 92 | 1007.3 |
| 20260506184019 | 53 | 205 | 1.7 | 3.5 | 0.12 | 0.46 | 0.46 | 91 | 1007.1 |
| 20260506183041 | 53 | 151 | 2.6 | 5.2 | 0.10 | 0.43 | 0.43 | 91 | 1006.9 |
| 20260506182032 | 53 | 144 | 2.6 | 5.2 | 0.09 | 0.41 | 0.41 | 91 | 1006.9 |
| 20260506181023 | 53 | 142 | 1.7 | 3.5 | 0.08 | 0.39 | 0.39 | 91 | 1006.7 |
| 20260506180045 | 53 | 175 | 3.5 | 7.0 | 0.06 | 0.37 | 0.37 | 90 | 1006.5 |
| 20260506175037 | 54 | 142 | 1.7 | 5.2 | 0.06 | 0.35 | 0.35 | 89 | 1006.4 |
| 20260506174028 | 54 | 209 | 3.5 | 5.2 | 0.04 | 0.34 | 0.34 | 89 | 1006.3 |
| 20260506173019 | 54 | 167 | 3.5 | 7.0 | 0.03 | 0.33 | 0.33 | 87 | 1006.0 |
| 20260506172041 | 55 | 204 | 3.5 | 5.2 | 0.02 | 0.37 | 0.32 | 88 | 1006.0 |
| 20260506171032 | 55 | 174 | 2.6 | 6.1 | 0.02 | 0.42 | 0.31 | 88 | 1005.8 |
| 20260506170024 | 55 | 160 | 2.6 | 5.2 | 0.02 | 0.45 | 0.31 | 88 | 1006.0 |
| 20260506165046 | 55 | 216 | 2.6 | 6.1 | 0.01 | 0.45 | 0.30 | 87 | 1005.9 |
| 20260506164037 | 55 | 144 | 3.5 | 9.6 | 0.02 | 0.47 | 0.30 | 87 | 1006.0 |
| 20260506163029 | 55 | 141 | 1.7 | 4.3 | 0.03 | 0.48 | 0.30 | 87 | 1005.9 |
| 20260506162021 | 55 | 149 | 2.6 | 5.2 | 0.05 | 0.49 | 0.30 | 87 | 1005.9 |
| 20260506161043 | 55 | 159 | 2.6 | 4.3 | 0.09 | 0.48 | 0.29 | 88 | 1005.9 |
| 20260506160033 | 55 | 154 | 1.7 | 3.5 | 0.11 | 0.48 | 0.29 | 88 | 1006.0 |
| 20260506155025 | 55 | 152 | 2.6 | 4.3 | 0.14 | 0.48 | 0.29 | 89 | 1006.0 |
| 20260506154017 | 54 | 135 | 2.6 | 5.2 | 0.17 | 0.47 | 0.28 | 91 | 1006.0 |
| 20260506153038 | 54 | 135 | 2.6 | 4.3 | 0.19 | 0.46 | 0.27 | 92 | 1005.9 |
| 20260506152053 | 54 | 161 | 3.5 | 7.0 | 0.18 | 0.44 | 0.24 | 92 | 1006.0 |
| 20260506151019 | 55 | 189 | 3.5 | 7.0 | 0.14 | 0.40 | 0.20 | 91 | 1005.9 |
| 20260506150041 | 55 | 144 | 3.5 | 10.4 | 0.12 | 0.37 | 0.18 | 91 | 1005.6 |
| 20260506145032 | 55 | 130 | 5.2 | 8.7 | 0.09 | 0.34 | 0.15 | 91 | 1005.6 |
| 20260506144023 | 55 | 138 | 3.5 | 8.7 | 0.06 | 0.31 | 0.11 | 91 | 1005.6 |
| 20260506143046 | 55 | 133 | 3.5 | 7.8 | 0.04 | 0.27 | 0.08 | 90 | 1005.5 |
| 20260506142037 | 56 | 148 | 3.5 | 7.8 | 0.04 | 0.26 | 0.07 | 88 | 1005.4 |
| 20260506141048 | 56 | 155 | 4.3 | 8.7 | 0.06 | 0.26 | 0.06 | 86 | 1005.3 |
| 20260506140020 | 57 | 113 | 0.9 | 4.3 | 0.06 | 0.25 | 0.06 | 86 | 1005.3 |
| 20260506135042 | 57 | 150 | 2.6 | 7.0 | 0.06 | 0.25 | 0.06 | 89 | 1005.2 |
| 20260506134033 | 57 | 129 | 2.6 | 4.3 | 0.05 | 0.24 | 0.05 | 89 | 1005.1 |
| 20260506133025 | 57 | 189 | 2.6 | 5.2 | 0.04 | 0.23 | 0.04 | 87 | 1005.1 |
| 20260506132041 | 58 | 213 | 2.6 | 6.1 | 0.03 | 0.22 | 0.03 | 81 | 1005.0 |
| 20260506131059 | 61 | 215 | 4.3 | 12.2 | 0.00 | 0.20 | 0.00 | 70 | 1004.9 |
| 20260506130033 | 63 | 230 | 4.3 | 7.0 | 0.00 | 0.19 | 0.00 | 64 | 1004.5 |
| 20260506125100 | 64 | 256 | 3.5 | 6.1 | 0.00 | 0.19 | 0.00 | 60 | 1004.3 |
| 20260506124043 | 64 | 224 | 2.6 | 7.0 | 0.00 | 0.20 | 0.00 | 57 | 1004.4 |
| 20260506123101 | 65 | 238 | 2.6 | 6.1 | 0.00 | 0.20 | 0.00 | 55 | 1004.3 |
| 20260506122031 | 65 | 262 | 2.6 | 5.2 | 0.00 | 0.20 | 0.00 | 55 | 1004.3 |
| 20260506121024 | 64 | 215 | 3.5 | 5.2 | 0.00 | 0.21 | 0.00 | 58 | 1004.3 |
| 20260506120045 | 64 | 215 | 2.6 | 5.2 | 0.00 | 0.21 | 0.00 | 58 | 1004.4 |
| 20260506115024 | 63 | 277 | 3.5 | 5.2 | 0.00 | 0.00 | 0.00 | 57 | 1004.5 |
| 20260506114017 | 63 | 256 | 1.7 | 4.3 | 0.00 | 0.22 | 0.00 | 59 | 1004.4 |
| 20260506113039 | 63 | 294 | 2.6 | 4.3 | 0.00 | 0.22 | 0.00 | 60 | 1004.3 |
| 20260506112031 | 63 | 250 | 2.6 | 4.3 | 0.00 | 0.22 | 0.00 | 59 | 1004.5 |
| 20260506111023 | 63 | 268 | 1.7 | 5.2 | 0.00 | 0.22 | 0.00 | 61 | 1004.5 |
| 20260506110044 | 64 | 272 | 2.6 | 4.3 | 0.00 | 0.22 | 0.00 | 61 | 1004.6 |
| 20260506105036 | 63 | 279 | 1.7 | 4.3 | 0.00 | 0.22 | 0.00 | 63 | 1004.6 |
| 20260506104027 | 63 | 286 | 1.7 | 3.5 | 0.00 | 0.22 | 0.00 | 64 | 1004.7 |
| 20260506103038 | 64 | 267 | 1.7 | 5.2 | 0.00 | 0.22 | 0.00 | 63 | 1004.8 |
| 20260506102040 | 65 | 310 | 2.6 | 5.2 | 0.00 | 0.22 | 0.00 | 62 | 1004.7 |
| 20260506101032 | 63 | 333 | 1.7 | 5.2 | 0.00 | 0.22 | 0.00 | 65 | 1004.7 |
| 20260506100024 | 62 | 295 | 1.7 | 4.3 | 0.00 | 0.22 | 0.00 | 68 | 1004.8 |
| 20260506095045 | 62 | 238 | 3.5 | 6.1 | 0.00 | 0.22 | 0.00 | 67 | 1004.9 |
| 20260506094037 | 63 | 256 | 2.6 | 5.2 | 0.00 | 0.22 | 0.00 | 65 | 1004.8 |
| 20260506093028 | 62 | 314 | 2.6 | 4.3 | 0.00 | 0.22 | 0.00 | 68 | 1004.7 |
| 20260506092019 | 62 | 305 | 2.6 | 8.7 | 0.00 | 0.22 | 0.00 | 69 | 1004.7 |
| 20260506091041 | 63 | 300 | 3.5 | 5.2 | 0.00 | 0.22 | 0.00 | 67 | 1004.7 |
| 20260506090114 | 62 | 303 | 2.6 | 6.1 | 0.00 | 0.22 | 0.00 | 67 | 1004.6 |
| 20260506085025 | 64 | 249 | 3.5 | 7.0 | 0.00 | 0.22 | 0.00 | 63 | 1004.6 |
| 20260506084016 | 61 | 237 | 2.6 | 7.0 | 0.00 | 0.23 | 0.00 | 67 | 1004.6 |
| 20260506083038 | 61 | 224 | 2.6 | 6.1 | 0.00 | 0.23 | 0.00 | 67 | 1004.6 |
| 20260506082029 | 62 | 244 | 3.5 | 6.1 | 0.00 | 0.24 | 0.00 | 67 | 1004.6 |
| 20260506081020 | 61 | 254 | 3.5 | 6.1 | 0.00 | 0.24 | 0.00 | 68 | 1004.5 |
| 20260506073017 | 59 | 271 | 2.6 | 3.5 | 0.00 | 0.26 | 0.00 | 71 | 1004.4 |
| 20260506072038 | 59 | 265 | 1.7 | 4.3 | 0.00 | 0.26 | 0.00 | 71 | 1004.4 |
| 20260506071030 | 59 | 221 | 2.6 | 5.2 | 0.00 | 0.26 | 0.00 | 71 | 1004.3 |
| 20260506062017 | 58 | 260 | 1.7 | 4.3 | 0.00 | 0.26 | 0.00 | 74 | 1004.5 |
| 20260506061039 | 58 | 231 | 1.7 | 5.2 | 0.00 | 0.26 | 0.00 | 75 | 1004.5 |
| 20260506051019 | 54 | 237 | 1.7 | 3.5 | 0.00 | 0.26 | 0.00 | 82 | 1004.9 |
| 20260506045032 | 53 | 228 | 1.7 | 2.6 | 0.00 | 0.26 | 0.00 | 84 | 1004.9 |
| 20260506044024 | 53 | 221 | 1.7 | 4.3 | 0.00 | 0.26 | 0.00 | 86 | 1004.9 |
| 20260506043046 | 53 | 196 | 1.7 | 3.5 | 0.00 | 0.26 | 0.00 | 86 | 1005.0 |
| 20260506042037 | 53 | 226 | 1.7 | 3.5 | 0.00 | 0.26 | 0.00 | 85 | 1004.9 |
| 20260506041029 | 53 | 210 | 0.9 | 2.6 | 0.00 | 0.26 | 0.00 | 85 | 1004.9 |
| 20260506040020 | 54 | 228 | 2.6 | 3.5 | 0.00 | 0.26 | 0.00 | 83 | 1004.8 |
| 20260506035103 | 55 | 179 | 1.7 | 2.6 | 0.00 | 0.26 | 0.00 | 82 | 1004.9 |
| 20260506034034 | 55 | 217 | 2.6 | 4.3 | 0.00 | 0.26 | 0.00 | 81 | 1004.8 |
| 20260506033046 | 55 | 156 | 1.7 | 3.5 | 0.00 | 0.26 | 0.00 | 81 | 1004.9 |
| 20260506032018 | 55 | 200 | 1.7 | 3.5 | 0.00 | 0.26 | 0.00 | 80 | 1004.9 |
| 20260506031040 | 55 | 192 | 0.9 | 3.5 | 0.00 | 0.26 | 0.00 | 80 | 1005.1 |
| 20260506030032 | 55 | 354 | 1.7 | 3.5 | 0.00 | 0.26 | 0.00 | 81 | 1005.2 |
| 20260506025024 | 56 | 241 | 0.9 | 3.5 | 0.00 | 0.26 | 0.00 | 80 | 1005.3 |
| 20260506024045 | 56 | 238 | 0.9 | 3.5 | 0.00 | 0.26 | 0.00 | 80 | 1005.5 |
| 20260506023037 | 57 | 238 | 1.7 | 3.5 | 0.00 | 0.26 | 0.00 | 78 | 1005.5 |
| 20260506022029 | 57 | 259 | 2.6 | 4.3 | 0.00 | 0.26 | 0.00 | 77 | 1005.6 |
| 20260506021041 | 57 | 2 | 1.7 | 3.5 | 0.00 | 0.26 | 0.00 | 78 | 1005.7 |
| 20260506015034 | 57 | 160 | 1.7 | 3.5 | 0.00 | 0.26 | 0.00 | 76 | 1005.5 |
| 20260506014026 | 57 | 204 | 1.7 | 5.2 | 0.00 | 0.26 | 0.00 | 77 | 1005.4 |
| 20260506013038 | 57 | 165 | 2.6 | 5.2 | 0.00 | 0.26 | 0.00 | 77 | 1005.5 |
| 20260506012040 | 57 | 144 | 2.6 | 6.1 | 0.00 | 0.26 | 0.00 | 78 | 1005.5 |
| 20260506011031 | 57 | 157 | 4.3 | 6.1 | 0.00 | 0.26 | 0.00 | 79 | 1005.6 |
| 20260506010023 | 57 | 156 | 2.6 | 4.3 | 0.00 | 0.26 | 0.00 | 78 | 1005.6 |
| 20260506005046 | 57 | 30 | 2.6 | 5.2 | 0.00 | 0.26 | 0.00 | 80 | 1005.7 |
| 20260506004037 | 57 | 113 | 2.6 | 4.3 | 0.00 | 0.26 | 0.00 | 79 | 1005.8 |
| 20260506003029 | 56 | 175 | 1.7 | 4.3 | 0.00 | 0.26 | 0.00 | 81 | 1006.1 |
| 20260506002021 | 56 | 173 | 2.6 | 5.2 | 0.00 | 0.26 | 0.00 | 83 | 1006.2 |
| 20260506001043 | 56 | 226 | 0.9 | 4.3 | 0.00 | 0.26 | 0.00 | 83 | 1006.2 |
| 20260506000052 | 57 | 181 | 2.6 | 4.3 | 0.00 | 0.26 | 0.00 | 81 | 1006.2 |
| 20260505235012 | 57 | 241 | 2.6 | 3.5 | 0.00 | 0.00 | 0.00 | 80 | 1006.2 |
| 20260505234037 | 57 | 56 | 1.7 | 3.5 | 0.00 | 0.26 | 0.00 | 80 | 1006.2 |
| 20260505233054 | 58 | 36 | 2.6 | 4.3 | 0.00 | 0.26 | 0.00 | 81 | 1006.3 |
| 20260505232045 | 58 | 164 | 1.7 | 4.3 | 0.00 | 0.26 | 0.00 | 82 | 1006.3 |
| 20260505231017 | 58 | 144 | 2.6 | 4.3 | 0.00 | 0.26 | 0.00 | 83 | 1006.5 |
| 20260505230039 | 57 | 123 | 1.7 | 3.5 | 0.00 | 0.26 | 0.00 | 83 | 1006.7 |
| 20260505225030 | 57 | 156 | 0.9 | 3.5 | 0.00 | 0.26 | 0.00 | 83 | 1006.7 |
| 20260505224022 | 57 | 198 | 0.9 | 2.6 | 0.00 | 0.26 | 0.00 | 83 | 1006.7 |
| 20260505223044 | 57 | 148 | 1.7 | 3.5 | 0.00 | 0.26 | 0.00 | 82 | 1006.8 |
| 20260505222056 | 57 | 125 | 1.7 | 3.5 | 0.00 | 0.26 | 0.00 | 83 | 1006.7 |
| 20260505221028 | 57 | 238 | 1.7 | 4.3 | 0.00 | 0.26 | 0.00 | 82 | 1006.7 |
| 20260505220019 | 57 | 110 | 1.7 | 4.3 | 0.00 | 0.26 | 0.00 | 83 | 1006.7 |
| 20260505215042 | 57 | 90 | 0.9 | 3.5 | 0.00 | 0.26 | 0.26 | 84 | 1006.6 |
| 20260505214034 | 57 | 209 | 0.9 | 3.5 | 0.00 | 0.26 | 0.26 | 85 | 1006.6 |
| 20260505213026 | 57 | 148 | 0.9 | 4.3 | 0.00 | 0.26 | 0.26 | 87 | 1006.5 |
| 20260505212037 | 57 | 147 | 0.9 | 3.5 | 0.00 | 0.26 | 0.26 | 87 | 1006.6 |
| 20260505211039 | 57 | 142 | 1.7 | 2.6 | 0.00 | 0.26 | 0.26 | 86 | 1006.5 |
| 20260505210031 | 57 | 143 | 0.9 | 2.6 | 0.00 | 0.26 | 0.26 | 87 | 1006.6 |
| 20260505205022 | 58 | 65 | 0.0 | 1.7 | 0.00 | 0.26 | 0.26 | 86 | 1006.5 |
| 20260505204105 | 58 | 121 | 0.9 | 2.6 | 0.00 | 0.26 | 0.26 | 87 | 1006.3 |
| 20260505203035 | 58 | 134 | 0.9 | 2.6 | 0.00 | 0.26 | 0.26 | 87 | 1006.3 |
| 20260505202026 | 58 | 135 | 0.9 | 3.5 | 0.00 | 0.26 | 0.26 | 86 | 1006.3 |
| 20260505201017 | 58 | 129 | 1.7 | 4.3 | 0.00 | 0.26 | 0.26 | 86 | 1006.3 |
| 20260505200039 | 58 | 128 | 1.7 | 5.2 | 0.00 | 0.26 | 0.26 | 86 | 1006.3 |
| 20260505195030 | 57 | 138 | 0.9 | 2.6 | 0.00 | 0.26 | 0.26 | 88 | 1006.1 |
| 20260505194022 | 58 | 228 | 0.9 | 1.7 | 0.00 | 0.26 | 0.26 | 87 | 1006.1 |
| 20260505193044 | 57 | 147 | 1.7 | 2.6 | 0.00 | 0.26 | 0.26 | 88 | 1006.0 |
| 20260505192036 | 57 | 132 | 0.9 | 2.6 | 0.00 | 0.26 | 0.26 | 89 | 1006.0 |
| 20260505191028 | 58 | 143 | 0.9 | 1.7 | 0.00 | 0.26 | 0.26 | 89 | 1006.1 |
| 20260505190038 | 58 | 168 | 0.9 | 1.7 | 0.00 | 0.26 | 0.26 | 89 | 1005.9 |